Regional Weather Roundup
Issued by NWS

Home | Current Version | Previous Version | Graphics & Text | Print | Product List | Glossary On
Versions: 1 2 3 4 5 6 7 8 9 10 11 12 13 14 15 16 17 18 19 20 21 22 23 24 25 26 27 28 29 30 31 32 33 34 35 36 37 38 39 40 41 42 43 44 45 46 47 48 49 50
099
ASUS43 KDTX 180910
RWRMI
MICHIGAN HOURLY REGIONAL WEATHER ROUNDUP
NATIONAL WEATHER SERVICE DETROIT/PONTIAC MI
400 AM EST MON DEC 18 2017

NOTE: "FAIR" INDICATES FEW OR NO CLOUDS BELOW 12,000 FEET WITH NO
SIGNIFICANT WEATHER AND/OR OBSTRUCTION TO VISIBILITY.

MIZ047>049-052>055-059>063-066>070-074>076-081>083-181000-
SOUTHEAST LOWER MICHIGAN

CITY           SKY/WX    TMP DP  RH WIND       PRES   REMARKS
ADRIAN         CLOUDY    36  34  92 SW7       29.97F WCI  30
ALMA           CLOUDY    30  29  98 CALM      29.93F FOG
ANN ARBOR      CLOUDY    36  35  96 S8        29.96F FOG     WCI  30
BAD AXE        LGT SNOW  27  26  96 CALM      29.93F
CARO           CLOUDY    29  28  96 CALM      29.92F FOG
DETROIT CITY   CLOUDY    37  35  92 SW9       29.97F WCI  30
DETROIT        CLOUDY    39  35  86 SW12      29.98F WCI  32
FLINT          CLOUDY    36  33  89 SW7       29.94F WCI  30
GROSSE ILE     CLOUDY    35  33  91 CALM      29.98S
HILLSDALE      CLOUDY    36  34  93 S5        29.94F FOG     WCI  32
HOWELL         CLOUDY    36  35  96 SW5       29.93F FOG     WCI  32

CITY           SKY/WX    TMP DP  RH WIND       PRES   REMARKS
JACKSON        CLOUDY    39  35  86 SW8       29.94F FOG     WCI  33
LAMBERTVILLE   CLOUDY    39  34  83 SW7       29.99F WCI  34
LANSING        CLOUDY    37  35  92 SW10      29.93F WCI  30
LAPEER         CLOUDY    37  35  93 SW6       29.93F WCI  32
MASON          CLOUDY    39  34  81 SW5       29.94S
MONROE         CLOUDY    38  33  81 SW8       29.99S WCI  32
MT. CLEMENS    CLOUDY    35  35 100 SW9       29.94F WCI  27
PONTIAC        CLOUDY    31  31 100 CALM      29.94S FOG
PORT HOPE        N/A     28  26  92 VRB3      29.92F
PORT HURON     CLOUDY    30  28  93 SW3       29.96F FOG
TRI CITIES     MIX PCPN  29  28  96 CALM      29.93F FOG
MIDLAND        CLOUDY    29  27  92 CALM      29.93S FOG
TROY           CLOUDY    33  32  96 SW5       29.98F FOG     WCI  29
SAGINAW HB     CLOUDY    30  28  93 CALM      29.93F FOG
$$
MIZ043>046-050>051-056>058-064>065-071>073-077>080-181000-
SOUTHWEST LOWER MICHIGAN

CITY           SKY/WX    TMP DP  RH WIND       PRES   REMARKS
BATTLE CREEK   CLOUDY    37  35  92 SW8       29.93F WCI  31
BENTON HARBOR  CLOUDY    39  35  86 S7        29.95S WCI  34
BIG RAPIDS     FOG       27  26  96 CALM      29.90S VSB 1
COLDWATER      CLOUDY    38  37  98 SW8       29.96S WCI  32
HOLLAND        CLOUDY    37  35  92 CALM      29.93F FOG
GRAND RAPIDS   CLOUDY    35  34  96 CALM      29.93F FOG
IONIA          CLOUDY    36  34  94 SW6       29.92S WCI  31
KALAMAZOO      CLOUDY    38  35  89 SW10      29.94F WCI  31
LUDINGTON      CLOUDY    30  28  93 E5        29.90F FOG     WCI  25
MARSHALL       CLOUDY    38  37  99 SW6       29.94F WCI  33
MOUNT PLEASANT FOG       29  28  95 CALM      29.91F VSB 1
MUSKEGON       CLOUDY    37  34  89 SW6       29.93F FOG     WCI  32
SOUTH HAVEN    CLOUDY    40  37  86 S6        29.94S
$$
MIZ016>042-181000-
NORTHERN LOWER MICHIGAN

CITY           SKY/WX    TMP DP  RH WIND       PRES   REMARKS
ALPENA         CLOUDY    28  28 100 W3        29.92S FOG
BEAVER ISLAND  CLOUDY    33  32  95 CALM      29.88F FOG
BELLAIRE       CLOUDY    28  28  99 S5        29.92S FOG     WCI  22
CADILLAC       FOG       26  25  99 CALM      29.88F VSB 1/4
CHARLEVOIX     FOG       27  27 100 SE7       29.92F VSB 1   WCI  20
FRANKFORT      CLOUDY    31  31 100 SE5       29.90F FOG     WCI  26
GAYLORD        CLOUDY    24  22  91 CALM      29.87F FOG
GRAYLING       CLOUDY    25  24  93 SW3       29.90S FOG
HARBOR SPRINGS CLOUDY    26  26  98 CALM      29.90F FOG
HOUGHTON LAKE  FOG       26  24  92 CALM      29.90F VSB 1/4
MANISTEE       MIX PCPN  29  28  96 E5        29.90F VSB 1/2 WCI  24
OSCODA         LGT SNOW  29  28  98 CALM      29.92F VSB 3/4
PELLSTON       CLOUDY    26  24  92 SE5       29.90F WCI  20
ROGERS CITY    CLOUDY    27  26  93 SW6       29.92S FOG     WCI  21
TRAVERSE CITY  CLOUDY    29  27  92 CALM      29.90F FOG
$$
MIZ007>008-015-181000-
EASTERN UPPER MICHIGAN

CITY           SKY/WX    TMP DP  RH WIND       PRES   REMARKS
MACKINAC ISLAN CLOUDY    29  25  86 S7        29.88F FOG     WCI  22
NEWBERRY       CLOUDY    24  23  96 CALM      29.85F
S. S. MARIE    CLOUDY    21  19  92 E3        29.89S
MUNISING         N/A     25  25 100 S6        29.85F WCI  18
$$
MIZ004>006-011>014-085-181000-
CENTRAL UPPER MICHIGAN

CITY           SKY/WX    TMP DP  RH WIND       PRES   REMARKS
MANISTIQUE     CLOUDY    29  24  82 W3        29.87F HAZE
ESCANABA       CLOUDY    26  25  96 SW5       29.88F WCI  20
MENOMINEE      CLOUDY    28  27  96 W6        29.89F WCI  22
SAWYER-GWINN   CLOUDY    23  22  98 SW5       29.83S FOG     WCI  17
$$
MIZ001>003-009>011-084-181000-
WESTERN UPPER MICHIGAN

CITY           SKY/WX    TMP DP  RH WIND       PRES   REMARKS
IRON MOUNTAIN  CLOUDY    27  23  85 W7        29.83F WCI  19
HOUGHTON       CLOUDY    27  22  81 SW8       29.81S WCI  19
COPPER HARBOR    N/A     29  24  82 SW5       29.81F WCI  24
IRONWOOD       CLOUDY    25  23  92 SW7       29.83F WCI  17
$$

ABBREVIATIONS USED IN REMARKS
   TC - TEMPERATURE IN CELSIUS
  WCI - WIND CHILL INDEX
   HX - HEAT INDEX
  VSB - VISIBILITY





USA.gov is the U.S. government's official web portal to all federal, state and local government web resources and services.